Location: Piotrkow Trybunalski
(51.4000°N, 19.6830°E)
Time: 15:17:22
(UTC+01:00)

Vanguard 2 - Pass Details

Date: 11 February 2023
Orbit: 553 x 2927 km, 32.9° (Epoch: 24 March)

Event Time Altitude Azimuth Distance (km) Brightness Sun altitude
Rises 19:51:07 0° 227° (SW) 4,439 11.9 -28.7°
Reaches altitude 10° 19:54:11 10° 217° (SW) 3,780 11.3 -29.2°
Maximum altitude 20:02:44 30° 161° (SSE) 3,261 10.3 -30.5°
Enters shadow 20:03:11 30° 158° (SSE) 3,297 10.3 -30.5°
Drops below altitude 10° 20:14:44 10° 110° (ESE) 5,385 - -32.3°
Sets 20:20:11 0° 102° (ESE) 6,626 - -33.0°
